Time,TemperatureF,DewpointF,PressureIn,WindDirection,WindDirectionDegrees,WindSpeedMPH,WindSpeedGustMPH,Humidity,HourlyPrecipIn,Conditions,Clouds,dailyrainin,SoftwareType,DateUTC
2013-01-31 15:21:00,32.1,18.0,29.83,SSE,150,13.0,31.0,57,0.00,,,0.00,weatherlink.com 1.10,2013-01-31 20:21:00,
2013-01-31 15:24:00,32.1,18.0,29.83,SSE,162,2.0,31.0,56,0.00,,,0.00,weatherlink.com 1.10,2013-01-31 20:24:00,
2013-01-31 15:39:00,32.2,19.0,29.84,SSE,163,3.0,28.0,58,0.00,,,0.00,weatherlink.com 1.10,2013-01-31 20:39:00,
2013-01-31 15:54:00,32.5,18.0,29.84,SSE,158,5.0,21.0,56,0.00,,,0.00,weatherlink.com 1.10,2013-01-31 20:54:00,
2013-01-31 16:10:00,32.3,18.0,29.85,SSE,162,5.0,25.0,57,0.00,,,0.00,weatherlink.com 1.10,2013-01-31 21:10:00,
2013-01-31 16:24:00,32.5,19.0,29.85,SSE,164,7.0,19.0,58,0.00,,,0.00,weatherlink.com 1.10,2013-01-31 21:24:00,
2013-01-31 16:39:00,32.3,19.0,29.85,SSE,158,6.0,22.0,58,0.00,,,0.00,weatherlink.com 1.10,2013-01-31 21:39:00,
2013-01-31 16:54:00,32.2,18.0,29.85,SE,143,17.0,22.0,57,0.00,,,0.00,weatherlink.com 1.10,2013-01-31 21:54:00,
2013-01-31 17:09:00,32.0,18.0,29.86,SSE,160,11.0,21.0,57,0.00,,,0.00,weatherlink.com 1.10,2013-01-31 22:09:00,
2013-01-31 17:24:00,31.8,18.0,29.85,SSE,158,0.0,15.0,58,0.00,,,0.00,weatherlink.com 1.10,2013-01-31 22:24:00,
2013-01-31 17:40:00,31.2,19.0,29.86,SSE,158,8.0,19.0,60,0.00,,,0.00,weatherlink.com 1.10,2013-01-31 22:40:00,
2013-01-31 17:55:00,30.7,19.0,29.86,SSE,163,2.0,19.0,61,0.00,,,0.00,weatherlink.com 1.10,2013-01-31 22:55:00,
2013-01-31 18:10:00,30.5,19.0,29.86,SSE,151,7.0,17.0,62,0.00,,,0.00,weatherlink.com 1.10,2013-01-31 23:10:00,
2013-01-31 18:25:00,30.3,19.0,29.86,SSE,159,1.0,11.0,62,0.00,,,0.00,weatherlink.com 1.10,2013-01-31 23:25:00,
2013-01-31 18:40:00,30.2,19.0,29.87,SSE,158,4.0,22.0,63,0.00,,,0.00,weatherlink.com 1.10,2013-01-31 23:40:00,
2013-01-31 18:55:00,30.5,19.0,29.87,SSE,158,6.0,16.0,62,0.00,,,0.00,weatherlink.com 1.10,2013-01-31 23:55:00,
2013-01-31 19:25:00,30.5,19.0,29.88,SSE,155,6.0,14.0,62,0.00,,,0.00,weatherlink.com 1.10,2013-02-01 00:25:00,
2013-01-31 19:40:00,30.4,19.0,29.88,SSE,160,2.0,16.0,63,0.00,,,0.00,weatherlink.com 1.10,2013-02-01 00:40:00,
2013-01-31 19:55:00,30.3,19.0,29.88,SSE,162,4.0,12.0,64,0.00,,,0.00,weatherlink.com 1.10,2013-02-01 00:55:00,
2013-01-31 20:10:00,30.2,19.0,29.88,SSE,157,0.0,9.0,64,0.00,,,0.00,weatherlink.com 1.10,2013-02-01 01:10:00,
2013-01-31 20:25:00,30.0,19.0,29.88,SSE,159,2.0,9.0,65,0.00,,,0.00,weatherlink.com 1.10,2013-02-01 01:25:00,
2013-01-31 20:40:00,30.0,19.0,29.89,SSE,157,5.0,9.0,64,0.00,,,0.00,weatherlink.com 1.10,2013-02-01 01:40:00,
2013-01-31 20:55:00,30.1,19.0,29.89,SSE,159,2.0,9.0,64,0.00,,,0.00,weatherlink.com 1.10,2013-02-01 01:55:00,
2013-01-31 21:10:00,30.1,20.0,29.89,SSE,156,4.0,9.0,65,0.00,,,0.00,weatherlink.com 1.10,2013-02-01 02:10:00,
2013-01-31 21:25:00,29.9,19.0,29.89,SSE,159,4.0,8.0,65,0.00,,,0.00,weatherlink.com 1.10,2013-02-01 02:25:00,
2013-01-31 21:40:00,30.1,20.0,29.89,SSE,158,1.0,8.0,65,0.00,,,0.00,weatherlink.com 1.10,2013-02-01 02:40:00,
2013-01-31 21:55:00,30.0,20.0,29.89,SSE,160,4.0,9.0,66,0.00,,,0.00,weatherlink.com 1.10,2013-02-01 02:55:00,
2013-01-31 22:10:00,30.0,20.0,29.89,SSE,155,2.0,8.0,66,0.00,,,0.00,weatherlink.com 1.10,2013-02-01 03:10:00,
2013-01-31 22:25:00,29.9,20.0,29.89,SSE,157,2.0,9.0,67,0.00,,,0.00,weatherlink.com 1.10,2013-02-01 03:25:00,
2013-01-31 22:40:00,29.7,20.0,29.88,SSE,158,0.0,7.0,68,0.00,,,0.00,weatherlink.com 1.10,2013-02-01 03:40:00,
2013-01-31 22:55:00,30.2,20.0,29.88,SSE,160,6.0,8.0,67,0.00,,,0.00,weatherlink.com 1.10,2013-02-01 03:55:00,
2013-01-31 23:10:00,30.3,21.0,29.88,SSE,156,1.0,7.0,68,0.00,,,0.00,weatherlink.com 1.10,2013-02-01 04:10:00,
2013-01-31 23:25:00,30.9,21.0,29.87,SSE,160,0.0,13.0,67,0.00,,,0.00,weatherlink.com 1.10,2013-02-01 04:25:00,
2013-01-31 23:40:00,31.5,21.0,29.87,SSE,159,0.0,12.0,66,0.00,,,0.00,weatherlink.com 1.10,2013-02-01 04:40:00,
2013-01-31 23:55:00,32.4,21.0,29.86,SSE,159,4.0,16.0,64,0.00,,,0.00,weatherlink.com 1.10,2013-02-01 04:55:00,